Main page
METAR-TAF:

METAR-TAF

Airports :

Kota, India

Kota Airport

latitude: 25-09-36N, longitude: 075-50-44E, elevation: 273 m

Current weather observation

The report was made 5 hours and 3 minutes ago, at 09:00 UTC
Wind 2 kt from the North
Temperature 37°C
Humidity 18%
Pressure 1007 hPa
Visibility: 4000 m
Few clouds at a height of 3000 ft
haze

METAR: VIKO 210900Z 36002KT 4000 HZ FEW030 37/09 Q1007 NOSIG

Time: 19:33 (14:03 UTC)


TAF: missing

Weather observations and forecasts of more than 4000 airports (METAR and TAF reports).

The available stations are represented by yellow and red dots on the map.

Hover mouse over dot to see the name of the station.

Then click to see weather observations and forecasts.

To change the map : click on the green buttons with a black cross to zoom in, on the green button with a dash to zoom out, or on the green arrows for adjacent maps.


METAR-TAF: